Litchfield, IL

4:51 PM CST on February 22, 2017 (GMT -0600)
Litchfield

Weather History for K3LF - November, 2013

Change the Weather History Date:

Friday, November 1, 2013

  Actual Average (KALN) Record (KALN)
Temperature  
Mean Temperature 49 °F -  
Max Temperature 57 °F 59 °F 82 °F (2000)
Min Temperature 41 °F 42 °F 28 °F (2006)
Degree Days  
Heating Degree Days 16    
Moisture  
Dew Point 43 °F    
Average Humidity 83    
Maximum Humidity 98    
Minimum Humidity 58    
Precipitation  
Precipitation 0.15 in - - ()
Sea Level Pressure  
Sea Level Pressure 29.72 in    
Wind  
Wind Speed 10 mph (WSW)    
Max Wind Speed 20 mph    
Max Gust Speed 26 mph    
Visibility 10 miles    
Events      
Averages and records for this station are not official NWS values.
T = Trace of Precipitation, MM = Missing Value Source: NWS Daily Summary

Daily Weather History Graph

Daily Weather History Graph

Search for Another Location

Airport or City:

Trip Planner

Search our weather history database for the weather conditions in past years. The results will help you decide how hot, cold, wet, or windy it might be!

Date:

Astronomy

Nov. 01, 2013 Rise Set
Actual Time 7:26 AM CDT 5:57 PM CDT
Civil Twilight 6:58 AM CDT 6:25 PM CDT
Nautical Twilight 6:27 AM CDT 6:56 PM CDT
Astronomical Twilight 5:56 AM CDT 7:27 PM CDT
Moon 5:19 AM CDT (11/1) 4:49 PM CDT (11/1)
Length of Visible Light 11h 26m
Length of Day
10h 30m
Waning Crescent, 4% of the Moon is Illuminated
Nov 1
Waning Crescent
Nov 3
New
Nov 9
First Quarter
Nov 17
Full
Nov 25
Last Quarter

Hourly Weather History & Observations

Time (CDT) Temp. Windchill Dew Point Humidity Pressure Visibility Wind Dir Wind Speed Gust Speed Precip Events Conditions
12:15 AM 46.2 °F 41.2 °F 44.6 °F 94% 29.61 in 10.0 mi WSW 10.4 mph - N/A   Clear
12:35 AM 45.7 °F 41.0 °F 44.6 °F 96% 29.62 in 10.0 mi WSW 9.2 mph - N/A   Clear
12:55 AM 45.5 °F 41.8 °F 44.2 °F 95% 29.63 in 10.0 mi SW 6.9 mph - N/A   Scattered Clouds
1:15 AM 45.5 °F 41.3 °F 44.4 °F 96% 29.63 in 10.0 mi SW 8.1 mph - 0.01 in   Scattered Clouds
1:35 AM 45.3 °F 41.1 °F 43.9 °F 95% 29.63 in 10.0 mi SW 8.1 mph - 0.01 in   Clear
1:55 AM 44.6 °F 40.2 °F 43.7 °F 97% 29.63 in 10.0 mi South 8.1 mph - 0.01 in   Clear
2:15 AM 44.8 °F 39.9 °F 44.1 °F 97% 29.63 in 10.0 mi SSW 9.2 mph - N/A   Clear
2:35 AM 45.0 °F 41.8 °F 44.1 °F 97% 29.63 in 10.0 mi SSW 5.8 mph - 0.01 in   Clear
2:55 AM 44.6 °F 39.7 °F 43.7 °F 97% 29.63 in 10.0 mi SSW 9.2 mph - 0.01 in   Clear
3:15 AM 45.0 °F 39.7 °F 44.1 °F 97% 29.63 in 10.0 mi SSW 10.4 mph - N/A   Clear
3:35 AM 46.0 °F 40.2 °F 44.8 °F 95% 29.63 in 10.0 mi SW 12.7 mph 19.6 mph N/A   Clear
3:55 AM 46.0 °F 40.6 °F 44.8 °F 95% 29.63 in 10.0 mi SW 11.5 mph 16.1 mph N/A   Clear
4:15 AM 45.9 °F 40.0 °F 44.6 °F 95% 29.63 in 10.0 mi SW 12.7 mph - N/A   Clear
4:35 AM 45.5 °F 40.3 °F 44.6 °F 97% 29.64 in 10.0 mi SW 10.4 mph - N/A   Clear
4:55 AM 45.5 °F 40.3 °F 44.6 °F 97% 29.65 in 10.0 mi SW 10.4 mph - N/A   Clear
5:15 AM 45.5 °F 40.8 °F 44.6 °F 97% 29.65 in 10.0 mi SSW 9.2 mph - N/A   Clear
5:35 AM 44.8 °F 41.0 °F 44.2 °F 98% 29.66 in 7.0 mi SW 6.9 mph - 0.01 in   Clear
5:55 AM 44.8 °F 40.4 °F 44.2 °F 98% 29.65 in 10.0 mi SW 8.1 mph - 0.01 in   Clear
6:15 AM 44.6 °F 42.2 °F 44.1 °F 98% 29.65 in 10.0 mi SW 4.6 mph - N/A   Clear
6:35 AM 43.7 °F 41.1 °F 43.2 °F 98% 29.65 in 7.0 mi WSW 4.6 mph - N/A   Clear
6:55 AM 43.7 °F 39.7 °F 43.0 °F 97% 29.65 in 10.0 mi WSW 6.9 mph - N/A   Clear
7:15 AM 44.6 °F 40.2 °F 43.9 °F 97% 29.65 in 10.0 mi WSW 8.1 mph - N/A   Clear
7:35 AM 45.1 °F 40.3 °F 44.1 °F 96% 29.66 in 10.0 mi WSW 9.2 mph - N/A   Clear
7:55 AM 45.7 °F 41.5 °F 44.6 °F 96% 29.67 in 10.0 mi SW 8.1 mph - N/A   Clear
8:15 AM 46.4 °F 42.9 °F 44.8 °F 94% 29.68 in 10.0 mi SW 6.9 mph - N/A   Clear
8:35 AM 47.5 °F - 45.0 °F 91% 29.69 in 10.0 mi WSW 10.4 mph - 0.01 in   Clear
8:55 AM 48.4 °F - 45.3 °F 89% 29.70 in 10.0 mi WSW 8.1 mph - 0.01 in   Clear
9:15 AM 48.7 °F - 45.5 °F 89% 29.70 in 10.0 mi WSW 10.4 mph - N/A   Clear
9:35 AM 49.6 °F - 45.7 °F 86% 29.70 in 10.0 mi WSW 10.4 mph - 0.01 in   Clear
9:55 AM 50.5 °F - 45.9 °F 84% 29.71 in 10.0 mi West 13.8 mph 17.3 mph 0.01 in   Clear
10:15 AM 51.4 °F - 45.3 °F 80% 29.71 in 10.0 mi West 13.8 mph - 0.01 in   Clear
10:35 AM 52.2 °F - 45.0 °F 76% 29.71 in 10.0 mi West 12.7 mph - 0.01 in   Clear
10:55 AM 52.7 °F - 44.6 °F 74% 29.71 in 10.0 mi West 13.8 mph 19.6 mph 0.01 in   Clear
11:15 AM 53.4 °F - 44.1 °F 71% 29.71 in 10.0 mi West 17.3 mph - N/A   Clear
11:35 AM 54.1 °F - 44.8 °F 71% 29.72 in 10.0 mi West 11.5 mph - N/A   Clear
11:55 AM 53.6 °F - 43.3 °F 68% 29.72 in 10.0 mi West 17.3 mph - 0.01 in   Scattered Clouds
12:15 PM 55.0 °F - 43.7 °F 66% 29.72 in 10.0 mi WNW 19.6 mph 25.3 mph N/A   Scattered Clouds
12:35 PM 54.3 °F - 43.2 °F 66% 29.72 in 10.0 mi West 19.6 mph 26.5 mph 0.01 in   Mostly Cloudy
12:55 PM 55.2 °F - 44.2 °F 67% 29.71 in 10.0 mi West 15.0 mph - 0.01 in   Mostly Cloudy
1:15 PM 55.2 °F - 43.7 °F 65% 29.71 in 10.0 mi West 15.0 mph - N/A   Mostly Cloudy
1:35 PM 54.5 °F - 42.4 °F 64% 29.70 in 10.0 mi West 16.1 mph 20.7 mph 0.01 in   Scattered Clouds
1:55 PM 54.5 °F - 42.4 °F 64% 29.71 in 10.0 mi West 15.0 mph - 0.01 in   Scattered Clouds
2:15 PM 56.8 °F - 43.0 °F 60% 29.71 in 10.0 mi West 12.7 mph - N/A   Scattered Clouds
2:35 PM 55.9 °F - 41.5 °F 58% 29.71 in 10.0 mi West 18.4 mph 23.0 mph 0.01 in   Mostly Cloudy
2:55 PM 56.3 °F - 42.1 °F 59% 29.71 in 10.0 mi WNW 13.8 mph 20.7 mph 0.01 in   Mostly Cloudy
3:15 PM 55.2 °F - 42.3 °F 62% 29.72 in 10.0 mi West 17.3 mph - N/A   Overcast
4:55 PM 53.2 °F - 41.4 °F 64% 29.76 in 10.0 mi West 15.0 mph 20.7 mph 0.01 in   Mostly Cloudy
5:15 PM 52.7 °F - 40.5 °F 63% 29.76 in 10.0 mi WNW 10.4 mph 17.3 mph N/A   Scattered Clouds
5:35 PM 52.0 °F - 40.8 °F 66% 29.77 in 10.0 mi West 11.5 mph - N/A   Scattered Clouds
5:55 PM 50.4 °F - 40.8 °F 70% 29.77 in 10.0 mi West 8.1 mph - 0.01 in   Scattered Clouds
6:15 PM 49.1 °F - 40.8 °F 73% 29.78 in 10.0 mi West 6.9 mph - N/A   Clear
6:35 PM 47.3 °F - 40.6 °F 78% 29.79 in 10.0 mi West 6.9 mph - N/A   Clear
6:55 PM 46.4 °F 42.9 °F 40.5 °F 80% 29.80 in 10.0 mi West 6.9 mph - N/A   Clear
7:15 PM 45.5 °F 42.5 °F 39.6 °F 80% 29.80 in 10.0 mi West 5.8 mph - N/A   Clear
7:35 PM 45.0 °F 43.5 °F 39.6 °F 81% 29.81 in 10.0 mi West 3.5 mph - 0.01 in   Clear
7:55 PM 44.6 °F 41.4 °F 39.4 °F 82% 29.81 in 10.0 mi WSW 5.8 mph - 0.01 in   Clear
8:15 PM 42.6 °F 40.9 °F 38.8 °F 86% 29.81 in 10.0 mi WSW 3.5 mph - N/A   Clear
8:35 PM 42.4 °F 39.6 °F 38.7 °F 86% 29.81 in 10.0 mi WSW 4.6 mph - N/A   Clear
8:55 PM 43.3 °F 39.9 °F 38.8 °F 84% 29.81 in 10.0 mi WSW 5.8 mph - N/A   Clear
9:15 PM 44.8 °F 40.4 °F 39.2 °F 81% 29.81 in 10.0 mi West 8.1 mph - N/A   Clear
9:35 PM 45.3 °F 41.1 °F 39.4 °F 80% 29.83 in 10.0 mi West 8.1 mph - 0.01 in   Clear
9:55 PM 45.0 °F 41.2 °F 39.2 °F 80% 29.83 in 10.0 mi West 6.9 mph - 0.01 in   Clear
10:15 PM 45.1 °F 40.8 °F 39.2 °F 80% 29.83 in 10.0 mi West 8.1 mph - N/A   Clear
10:35 PM 44.8 °F 41.0 °F 39.2 °F 81% 29.84 in 10.0 mi West 6.9 mph - N/A   Clear
10:55 PM 45.0 °F 40.6 °F 39.2 °F 80% 29.84 in 10.0 mi West 8.1 mph - N/A   Clear
11:15 PM 43.7 °F 39.1 °F 39.2 °F 84% 29.84 in 10.0 mi West 8.1 mph - N/A   Clear
11:35 PM 42.6 °F 39.9 °F 38.5 °F 85% 29.83 in 10.0 mi WSW 4.6 mph - N/A   Clear
11:55 PM 41.9 °F 39.0 °F 38.3 °F 87% 29.83 in 10.0 mi WSW 4.6 mph - 0.01 in   Clear